Location: P�rn�nmaa
(61.1833°N, 23.0000°E)
Time: 18:51:05
(UTC+00:00)

NOSS 0 Rocket - Pass Details

Date: 08 December 2019
Orbit: 934 x 956 km, 70.0° (Epoch: 17 January)

Event Time Altitude Azimuth Distance (km) Brightness Sun altitude
Rises 17:45:24 0° 227° (SW) 3,616 7.5 -30.0°
Reaches altitude 10° 17:47:55 10° 228° (SW) 2,676 6.7 -30.3°
Enters shadow 17:53:50 78° 273° (W) 983 4.0 -31.1°
